User: anonymous   Login
Location: Lac de la Montange Noire
(46.1952°N, 74.2701°W)
Time: 16:49:59
(UTC-04:00)
Language:

Iridium 42 - Orbit

View from above orbital plane
View from above orbital plane
View from above satellite
View from above satellite

Ground track
Ground track

The orbit data is extracted from the following two-line orbital elements,

1 25077U 97077A   16269.54358115  .00000123  00000-0  36699-4 0  9990
2 25077  86.3966 132.6013 0002249  85.7396 274.4057 14.34502449984255
Epoch (UTC): 25 September 2016 13:02:45
Eccentricity: 0.0002249
inclination: 86.3966°
perigee height: 775 km
apogee height: 778 km
right ascension of ascending node: 132.6013°
argument of perigee: 85.7396°
revolutions per day: 14.34502449
mean anomaly at epoch: 274.4057°
orbit number at epoch: 98425

The dashed part of the orbit path shows where the satellite is in the earth's shadow,  

DLR